DW8751 Weather Reports


time (UTC)temp
F
wind
direction
speed
knots
gust
knots
rain 1hr
in
rain 24hr
in
rain mn
in
humidity
%
barometer
mb
20260508071104 50 189 0.9 2.6 0.00 0.00 0.00 80 1013.2
20260508070604 51 191 1.7 2.6 0.00 0.00 0.00 80 1013.2
20260508065604 51 188 0.0 0.0 0.00 0.00 0.00 79 1013.2
20260508065103 51 188 0.0 0.0 0.00 0.00 0.00 79 1013.2
20260508064604 51 188 0.0 1.7 0.00 0.00 0.00 79 1013.2
20260508064104 51 188 0.0 1.7 0.00 0.00 0.00 79 1013.2
20260508063604 50 188 0.0 0.0 0.00 0.00 0.00 80 1013.2
20260508063104 50 187 0.0 0.0 0.00 0.00 0.00 80 1013.2
20260508062604 50 187 0.0 0.0 0.00 0.00 0.00 80 1013.2
20260508061104 50 187 0.9 2.6 0.00 0.00 0.00 79 1013.2
20260508060103 50 187 2.6 4.3 0.00 0.00 0.00 79 1013.2
20260508055604 50 193 2.6 4.3 0.00 0.00 0.00 80 1013.2
20260508055104 50 195 2.6 4.3 0.00 0.00 0.00 80 1013.2
20260508054604 49 190 4.3 6.1 0.00 0.00 0.00 80 1013.2
20260508054104 49 219 4.3 7.0 0.00 0.00 0.00 80 1013.2
20260508053604 49 182 4.3 7.0 0.00 0.00 0.00 80 1013.2
20260508052604 49 195 2.6 6.1 0.00 0.00 0.00 80 1013.2
20260508050605 49 191 2.6 6.1 0.00 0.00 0.00 80 1013.2
20260508050104 49 198 1.7 4.3 0.00 0.00 0.00 81 1013.2
20260508045604 49 207 2.6 4.3 0.00 0.00 0.00 81 1013.2
20260508045104 48 152 3.5 6.1 0.00 0.00 0.00 81 1013.2
20260508044604 48 93 1.7 4.3 0.00 0.00 0.00 82 1013.2
20260508044104 48 97 2.6 4.3 0.00 0.00 0.00 82 1013.2
20260508043604 49 124 2.6 5.2 0.00 0.00 0.00 81 1013.2
20260508043104 49 115 0.9 6.1 0.00 0.00 0.00 81 1013.2
20260508042603 48 179 1.7 7.0 0.00 0.00 0.00 82 1013.2
20260508041604 49 240 1.7 2.6 0.00 0.00 0.00 80 1013.2
20260508041105 49 244 0.0 0.0 0.00 0.00 0.00 80 1013.2
20260508040604 49 242 0.0 4.3 0.00 0.00 0.00 79 1013.2
20260508040104 49 246 1.7 7.0 0.00 0.00 0.00 79 1013.2
20260508035604 49 197 6.1 10.4 0.00 0.00 0.00 79 1013.2
20260508035104 49 190 5.2 7.8 0.00 0.00 0.00 80 1013.2
20260508034604 49 192 4.3 8.7 0.00 0.00 0.00 80 1013.2
20260508033604 49 197 4.3 7.0 0.00 0.00 0.00 80 1013.2
20260508033104 49 237 0.9 2.6 0.00 0.00 0.00 79 1013.2
20260508032604 49 238 0.9 5.2 0.00 0.00 0.00 79 1013.2
20260508032104 49 201 4.3 7.0 0.00 0.00 0.00 79 1013.2
20260508031604 49 188 5.2 8.7 0.00 0.00 0.00 80 1013.2
20260508031104 49 188 5.2 7.8 0.00 0.00 0.00 80 1013.2
20260508030604 49 189 5.2 7.8 0.00 0.00 0.00 80 1013.2
20260508030105 49 189 4.3 7.0 0.00 0.00 0.00 80 1013.2
20260508025604 49 236 4.3 7.0 0.00 0.00 0.00 79 1013.2
20260508024604 50 234 4.3 7.8 0.00 0.00 0.00 79 1013.2
20260508024103 50 199 4.3 7.0 0.00 0.00 0.00 79 1013.2
20260508023604 50 185 5.2 7.8 0.00 0.00 0.00 79 1013.2
20260508023104 50 175 5.2 10.4 0.00 0.00 0.00 79 1013.2
20260508022604 50 186 5.2 7.8 0.00 0.00 0.00 79 1013.2
20260508022104 50 183 5.2 8.7 0.00 0.00 0.00 79 1013.2
20260508021604 50 182 6.1 10.4 0.00 0.00 0.00 79 1013.2
20260508021104 50 176 4.3 8.7 0.00 0.00 0.00 79 1013.2
20260508020604 50 211 3.5 7.8 0.00 0.00 0.00 79 1013.2
20260508020104 50 201 5.2 7.8 0.00 0.00 0.00 79 1013.2
20260508015604 49 196 5.2 7.0 0.00 0.00 0.00 79 1013.2
20260508015104 49 184 5.2 8.7 0.00 0.00 0.00 79 1013.2
20260508014104 49 177 6.1 11.3 0.00 0.00 0.00 80 1013.2
20260508013605 49 182 6.1 8.7 0.00 0.00 0.00 80 1013.2
20260508013104 49 180 6.1 10.4 0.00 0.00 0.00 81 1013.2
20260508012604 49 183 5.2 8.7 0.00 0.00 0.00 81 1013.2
20260508012104 49 179 6.1 10.4 0.00 0.00 0.00 81 1013.2
20260508011604 49 204 5.2 8.7 0.00 0.00 0.00 81 1013.2
20260508010603 49 192 4.3 7.8 0.00 0.00 0.00 81 1013.2
20260508005603 49 190 5.2 10.4 0.00 0.00 0.00 82 1013.2
20260508005104 49 186 6.1 10.4 0.00 0.00 0.00 82 1013.2
20260508004103 49 183 6.1 10.4 0.00 0.00 0.00 82 1013.2
20260508003604 48 186 6.1 10.4 0.00 0.00 0.00 81 1013.2
20260508002604 49 202 4.3 10.4 0.00 0.00 0.00 81 1013.2
20260508002104 49 191 6.1 7.8 0.00 0.00 0.00 81 1013.2
20260508001604 49 195 4.3 7.0 0.00 0.00 0.00 80 1013.2
20260508000604 49 188 7.8 10.4 0.00 0.00 0.00 80 1013.2
20260508000104 49 184 7.0 12.2 0.00 0.00 0.00 80 1013.2
20260507235604 49 191 8.7 12.2 0.00 0.00 0.00 81 1013.2
20260507235104 49 187 7.8 13.0 0.00 0.00 0.00 81 1013.2
20260507234604 49 185 8.7 14.8 0.00 0.00 0.00 81 1013.2
20260507234104 49 190 7.8 12.2 0.00 0.00 0.00 81 1013.2
20260507233604 49 183 7.0 11.3 0.00 0.00 0.00 81 1013.2
20260507233104 49 188 6.1 8.7 0.00 0.00 0.00 81 1013.2
20260507232604 49 204 5.2 10.4 0.00 0.00 0.00 81 1013.2
20260507232104 49 189 7.0 11.3 0.00 0.00 0.00 81 1013.2
20260507231604 49 192 8.7 13.0 0.00 0.00 0.00 81 1013.2
20260507231104 49 185 7.8 12.2 0.00 0.00 0.00 81 1013.2
20260507230603 49 178 7.8 17.4 0.00 0.00 0.00 81 1013.2
20260507225604 49 183 8.7 13.9 0.00 0.00 0.00 81 1013.2
20260507225104 49 188 8.7 13.0 0.00 0.00 0.00 81 1013.2
20260507224604 49 185 9.6 13.9 0.00 0.00 0.00 81 1013.2
20260507223604 49 181 8.7 13.0 0.00 0.00 0.00 80 1013.2
20260507222604 49 188 9.6 17.4 0.00 0.00 0.00 80 1013.2
20260507222104 49 182 9.6 13.0 0.00 0.00 0.00 79 1013.2
20260507221604 49 184 8.7 13.0 0.00 0.00 0.00 79 1013.2
20260507221104 49 194 7.8 13.0 0.00 0.00 0.00 79 1013.2
20260507220104 50 200 10.4 14.8 0.00 0.00 0.00 79 1013.2
20260507215604 50 187 9.6 13.0 0.00 0.00 0.00 79 1013.2
20260507215104 50 198 9.6 13.9 0.00 0.00 0.00 78 1013.2
20260507214604 50 182 7.0 12.2 0.00 0.00 0.00 78 1013.2
20260507214104 50 184 10.4 13.9 0.00 0.00 0.00 78 1013.2
20260507213604 50 181 7.0 13.0 0.00 0.00 0.00 78 1013.2
20260507213104 50 188 6.1 12.2 0.00 0.00 0.00 78 1013.2
20260507212604 50 188 6.1 11.3 0.00 0.00 0.00 77 1013.2
20260507212103 50 184 6.1 10.4 0.00 0.00 0.00 77 1013.2
20260507211604 50 182 6.1 12.2 0.00 0.00 0.00 76 1013.2
20260507211104 50 183 5.2 10.4 0.00 0.00 0.00 76 1013.2
20260507210604 50 183 5.2 7.8 0.00 0.00 0.00 76 1013.2
20260507210104 50 185 6.1 10.4 0.00 0.00 0.00 76 1013.2
20260507205604 50 185 6.1 8.7 0.00 0.00 0.00 76 1013.2
20260507204104 50 184 5.2 12.2 0.00 0.00 0.00 74 1013.2
20260507203104 50 196 6.1 11.3 0.00 0.00 0.00 74 1013.2
20260507202604 50 189 7.0 10.4 0.00 0.00 0.00 74 1013.2
20260507202104 50 188 7.0 10.4 0.00 0.00 0.00 73 1013.2
20260507201604 50 190 7.8 11.3 0.00 0.00 0.00 73 1013.2
20260507201103 50 185 6.1 10.4 0.00 0.00 0.00 73 1013.2
20260507200104 51 194 8.7 12.2 0.00 0.00 0.00 73 1013.2
20260507194604 51 191 6.1 10.4 0.00 0.00 0.00 72 1013.2
20260507194104 51 188 5.2 7.8 0.00 0.00 0.00 71 1013.2
20260507193604 51 178 5.2 7.0 0.00 0.00 0.00 71 1013.2
20260507193104 52 167 5.2 10.4 0.00 0.00 0.00 70 1013.2
20260507192604 52 187 6.1 8.7 0.00 0.00 0.00 70 1013.2
20260507192104 52 173 5.2 8.7 0.00 0.00 0.00 71 1013.2
20260507191604 53 188 6.1 7.8 0.00 0.00 0.00 71 1013.2
20260507191104 53 176 5.2 7.0 0.00 0.00 0.00 72 1013.2
20260507190603 53 175 5.2 8.7 0.00 0.00 0.00 72 1013.2
20260507190104 53 178 5.2 8.7 0.00 0.00 0.00 73 1013.2
20260507185604 52 189 4.3 10.4 0.00 0.00 0.00 73 1013.2
20260507185104 52 165 4.3 8.7 0.00 0.00 0.00 74 1013.2
20260507184604 53 175 5.2 7.8 0.00 0.00 0.00 74 1013.2
20260507184104 53 175 5.2 8.7 0.00 0.00 0.00 74 1013.2
20260507183604 53 174 5.2 13.0 0.00 0.00 0.00 74 1013.2
20260507182604 53 163 5.2 8.7 0.00 0.00 0.00 72 1013.2
20260507182103 53 167 5.2 10.4 0.00 0.00 0.00 73 1013.2
20260507181603 53 168 4.3 8.7 0.00 0.00 0.00 73 1013.2
20260507181104 53 166 6.1 8.7 0.00 0.00 0.00 73 1013.2
20260507180604 53 198 4.3 10.4 0.00 0.00 0.00 72 1013.2
20260507175603 53 184 6.1 10.4 0.00 0.00 0.00 72 1013.2
20260507175104 53 181 6.1 11.3 0.00 0.00 0.00 72 1013.2
20260507174604 53 178 5.2 12.2 0.00 0.00 0.00 72 1013.2
20260507174104 53 193 4.3 10.4 0.00 0.00 0.00 74 1013.2
20260507173604 53 182 5.2 10.4 0.00 0.00 0.00 74 1013.2
20260507173104 54 198 4.3 6.1 0.00 0.00 0.00 75 1013.2
20260507172604 54 184 2.6 6.1 0.00 0.00 0.00 74 1013.2
20260507172104 54 186 3.5 7.0 0.00 0.00 0.00 74 1013.2
20260507170104 54 201 5.2 8.7 0.00 0.00 0.00 74 1013.2
20260507165604 54 225 5.2 11.3 0.00 0.00 0.00 74 1013.2
20260507165104 54 220 5.2 10.4 0.00 0.00 0.00 75 1013.2
20260507164604 53 202 6.1 10.4 0.00 0.00 0.00 75 1013.2
20260507164104 53 189 7.8 12.2 0.00 0.00 0.00 75 1013.2
20260507163604 53 182 3.5 8.7 0.00 0.00 0.00 75 1013.2
20260507163104 53 173 5.2 10.4 0.00 0.00 0.00 75 1013.2
20260507162103 53 183 6.1 10.4 0.00 0.00 0.00 75 1013.2
20260507161103 53 187 7.8 11.3 0.00 0.00 0.00 73 1013.2
20260507160604 54 189 7.0 11.3 0.00 0.00 0.00 72 1013.2
20260507160104 54 185 6.1 13.9 0.00 0.00 0.00 70 1013.2
20260507155603 55 190 5.2 10.4 0.00 0.00 0.00 69 1013.2
20260507155104 55 186 7.0 11.3 0.00 0.00 0.00 69 1013.2
20260507154604 55 199 3.5 10.4 0.00 0.00 0.00 70 1013.2
20260507154103 55 212 4.3 5.2 0.00 0.00 0.00 70 1013.2
20260507153604 55 196 1.7 7.0 0.00 0.00 0.00 70 1013.2
20260507153104 55 178 2.6 4.3 0.00 0.00 0.00 71 1013.2
20260507152603 55 168 2.6 6.1 0.00 0.00 0.00 70 1013.2
20260507152104 54 191 1.7 2.6 0.00 0.00 0.00 71 1013.2
20260507151604 54 191 0.9 2.6 0.00 0.00 0.00 71 1013.2
20260507151104 54 192 2.6 5.2 0.00 0.00 0.00 71 1013.2
20260507150604 54 193 0.9 2.6 0.00 0.00 0.00 72 1013.2
20260507150104 54 193 2.6 6.1 0.00 0.00 0.00 72 1013.2
20260507145603 54 133 2.6 4.3 0.00 0.00 0.00 73 1013.2
20260507144604 53 61 0.9 1.7 0.00 0.00 0.00 74 1013.2
20260507143604 53 61 0.0 1.7 0.00 0.00 0.00 76 1013.2
20260507142604 53 61 0.9 2.6 0.00 0.00 0.00 75 1013.2
20260507142104 53 61 2.6 2.6 0.00 0.00 0.00 74 1013.2
20260507141604 53 61 0.9 2.6 0.00 0.00 0.00 73 1013.2
20260507141104 53 61 0.9 2.6 0.00 0.00 0.00 72 1013.2
20260507140604 53 61 1.7 4.3 0.00 0.00 0.00 71 1013.2
20260507140104 53 51 1.7 4.3 0.00 0.00 0.00 70 1013.2
20260507135604 53 21 2.6 5.2 0.00 0.00 0.00 73 1013.2
20260507135104 53 14 3.5 4.3 0.00 0.00 0.00 72 1013.2
20260507134604 53 4 0.0 2.6 0.00 0.00 0.00 71 1013.2
20260507134104 53 4 0.9 2.6 0.00 0.00 0.00 70 1013.2
20260507133604 53 4 2.6 5.2 0.00 0.00 0.00 70 1013.2
20260507133104 53 4 3.5 5.2 0.00 0.00 0.00 70 1013.2
20260507132604 53 5 1.7 5.2 0.00 0.00 0.00 70 1013.2
20260507132104 54 4 4.3 5.2 0.00 0.00 0.00 69 1013.2
20260507131604 54 4 3.5 5.2 0.00 0.00 0.00 68 1013.2
20260507131104 55 302 3.5 5.2 0.00 0.00 0.00 67 1013.2
20260507130604 55 272 2.6 4.3 0.00 0.00 0.00 66 1013.2
20260507130104 56 209 1.7 2.6 0.00 0.00 0.00 64 1013.2
20260507125104 56 202 0.0 1.7 0.00 0.00 0.00 61 1013.2
20260507124603 57 202 0.0 2.6 0.00 0.00 0.00 62 1013.2
20260507124104 57 202 0.0 2.6 0.00 0.00 0.00 61 1013.2
20260507123604 57 202 0.9 2.6 0.00 0.00 0.00 61 1013.2
20260507123104 57 200 2.6 5.2 0.00 0.00 0.00 61 1013.2
20260507122604 57 197 1.7 4.3 0.00 0.00 0.00 62 1013.3
20260507122104 57 188 2.6 5.2 0.00 0.00 0.00 62 1013.3
20260507121603 57 180 2.6 5.2 0.00 0.00 0.00 62 1013.3
20260507121104 57 177 2.6 6.1 0.00 0.00 0.00 61 1013.3
20260507120604 57 214 4.3 7.8 0.00 0.00 0.00 61 1013.3
20260507120104 57 175 6.1 10.4 0.00 0.00 0.00 62 1013.4
20260507114604 56 172 7.0 12.2 0.00 0.00 0.00 65 1013.3
20260507114105 56 180 7.0 13.0 0.00 0.00 0.00 63 1013.3
20260507113603 55 184 6.1 11.3 0.00 0.00 0.00 64 1013.3
20260507113104 55 163 8.7 13.9 0.00 0.00 0.00 64 1013.3
20260507112604 55 188 7.8 14.8 0.00 0.00 0.00 65 1013.3
20260507112104 55 176 8.7 12.2 0.00 0.00 0.00 65 1013.3
20260507111604 55 179 6.1 10.4 0.00 0.00 0.00 66 1013.4
20260507111103 55 180 7.0 10.4 0.00 0.00 0.00 67 1013.4
20260507110604 54 175 7.8 11.3 0.00 0.00 0.00 68 1013.4
20260507110104 54 165 5.2 11.3 0.00 0.00 0.00 68 1013.4
20260507105603 54 193 5.2 10.4 0.00 0.00 0.00 69 1013.5
20260507105104 54 181 5.2 8.7 0.00 0.00 0.00 70 1013.6
20260507104604 54 167 5.2 10.4 0.00 0.00 0.00 70 1013.6
20260507104103 54 183 4.3 10.4 0.00 0.00 0.00 70 1013.6
20260507103604 54 196 6.1 11.3 0.00 0.00 0.00 70 1013.6
20260507103104 54 206 5.2 8.7 0.00 0.00 0.00 70 1013.6
20260507101603 53 162 5.2 8.7 0.00 0.00 0.00 71 1013.6
20260507101104 53 184 6.1 11.3 0.00 0.00 0.00 71 1013.7
20260507100604 53 168 4.3 7.8 0.00 0.00 0.00 72 1013.7
20260507100104 52 180 2.6 7.0 0.00 0.00 0.00 72 1013.7
20260507095604 52 207 6.1 8.7 0.00 0.00 0.00 72 1013.7